User: anonymous   Login
Location: Unspecified
(0.0000°N, 0.0000°E)
Time: 04:27:01
(UTC+00:00)
Language:

CZ-4C DEB - Orbit

View from above orbital plane
View from above orbital plane
View from above satellite
View from above satellite

Ground track
Ground track

The orbit data is extracted from the following two-line orbital elements,

1 43261U 18031C   25341.23405921  .00013127  00000-0  11078-2 0  9993
2 43261  97.7999  60.3661 0003985 146.2550 213.8926 14.98259386415633
Epoch (UTC): 07 December 2025 05:37:02
Eccentricity: 0.0003985
inclination: 97.7999°
perigee height: 569 km
apogee height: 575 km
right ascension of ascending node: 60.3661°
argument of perigee: 146.2550°
revolutions per day: 14.98259386
mean anomaly at epoch: 213.8926°
orbit number at epoch: 41563

The dashed part of the orbit path shows where the satellite is in the earth's shadow,  

DLR